Погода в Нижнезаморском

Россия / Республика Крым     45°22′06″N   36°00′45″E
темп.,
°C
ветер,
м/с
пор.,
м/с
влажн.,
%
обл.,
%
осадки,
мм/ч
давл.,
гПа
погр.,
м
27 февраля, сб
сб2700:00+7юз713920 0.0 1023289
03:00+7юз712900 0.0 1022303
06:00+6юз612900 0.0 1020288
09:00+8юз711790 0.0 1020376
12:00+11юз810670 0.0 1019544
15:00+12юз686413 0.0 1018593
18:00+9зсз357735 0.0 1016324
21:00+7ссз459267 0.1 1017314
28 февраля, вс
вс2800:00+5с71090100 1.1 1017492
03:00+4с5887100 1.4 1018603
06:00+4ссз598071 0.0 1019392
09:00+4ссз688268 0.1 1019742
12:00+4ссз578592 0.3 1020583
15:00+4сз677996 0.5 1021747
18:00+4сз588175 0.1 1021725
21:00+3ссз479374 0.3 1022364
1 марта, пн
пн100:00+2сз368981 0.2 1023239
03:00+2сз238583 0.3 102484
06:00+1з249095 0.1 1024101
09:00+2сз459398 0.2 1026382
12:00+2ссз3490100 0.3 1026382
15:00+4ссз4470100 0.5 1027725
18:00+3с237369 0.1 1027103
21:000ссз228334 0.1 102823
2 марта, вт
вт200:000ссз12850 0.0 102922
03:000з12860 0.0 102922
06:000з23890 0.0 102936
09:00+2зсз247428 0.0 1030203
12:00+5зсз565798 0.0 10291006
15:00+7з685559 0.0 10271207
18:00+5з5106773 0.0 1025716
21:00+3з7137485 0.0 1025702
3 марта, ср
ср300:00+4зсз61383100 0.0 1024577
03:00+5сз6108798 0.1 1023483
06:00+2з468855 0.0 1023128
09:00+4зсз6108654 0.1 1025663
12:00+6сз7973100 0.3 10251060
15:00+7сз795750 0.3 10251337
18:00+6сз58640 0.0 1025484
21:00+3сз36780 0.0 1027104